TIME,DELAY(SENSOR),PRES,T(CTD),SAL,OXYGEN,RAWTEMP,T(OPTODE),TCPHASE,FLUOR,BETA(BETA700),BETA(BETA412),BETA(BETA440),CDOM,C(CSC),ED(ED411.90),ED(ED443.80),ED(ED489.40),ED(ED554.70),LU(LU412.20),LU(LU443.80),LU(LU489.40),LU(LU555.00),COMP,TILTX,TILTX(TILTY),CHECK
1349881820,5804,497.9400024414062500,16.8915996551513670,36.3431015014648440,218.2283935546875000,192.1082000732422000,16.8862304687500000,32.0848083496093750,52,100,79,62,49,13029,2146956260,2147514459,2147269184,2147469065,2147087670,2146954825,2147656841,2147119222,1362,-1,9,34207
1349881985,5805,487.1900024414062500,17.0608005523681640,36.3764991760253900,222.6031036376953000,186.6161956787109400,17.0518093109130860,31.7793693542480470,52,101,81,62,50,13027,2146956132,2147514075,2147266852,2147466313,2147086043,2146953362,2147656475,2147122285,726,-1,8,4797
1349882139,5804,475.2999877929687500,17.1576995849609380,36.3972015380859400,225.1280975341797000,183.1967926025390600,17.1549205780029300,31.6023693084716800,50,100,79,62,50,13029,2146957266,2147516278,2147269257,2147466322,2147084900,2146954084,2147657910,2147124525,3382,-2,8,16907
1349882260,5808,464.6799926757812500,17.2912998199462900,36.4234008789062500,227.3943939208984400,178.7812042236328000,17.2880897521972660,31.4269790649414060,50,101,80,61,49,13025,2146955675,2147516489,2147268827,2147461586,2147083675,2146958985,2147657865,2147120219,2644,-1,8,19096
1349882395,5804,453.0700073242187500,17.3980998992919920,36.4434013366699200,229.0193939208984400,175.1584014892578000,17.3973808288574220,31.2959403991699220,50,101,79,62,49,13025,2146956416,2147513901,2147268589,2147465590,2147086436,2146956452,2147656658,2147117330,2374,-1,8,43105
1349882516,5803,442.7900085449219000,17.4860000610351560,36.4603004455566400,229.9214019775390600,172.4734039306640600,17.4783802032470700,31.2144203186035160,50,100,79,61,50,13028,2146958902,2147517586,2147265252,2147462628,2147086857,2146961792,2147654390,2147117641,1904,-1,8,19597
1349882651,5806,431.5799865722656000,17.5874996185302730,36.4791984558105500,231.5469970703125000,168.9393005371093800,17.5850105285644530,31.0862102508544920,50,100,80,62,50,13026,2146954861,2147518153,2147264448,2147464594,2147087049,2146956150,2147657682,2147118784,1492,-2,8,1618
1349882794,5806,420.1799926757812500,17.6802997589111330,36.4973983764648440,232.6405029296875000,165.7716064453125000,17.6806106567382800,30.9899997711181640,51,101,79,62,50,13028,2146956544,2147517842,2147266066,2147464850,2147084242,2146956288,2147652589,2147121508,551,-1,8,22867
1349882926,5806,409.8699951171875000,17.7576007843017580,36.5102996826171900,233.8444976806640600,163.0016937255859400,17.7642192840576170,30.8936901092529300,50,102,79,62,49,13024,2146957915,2147516699,2147267099,2147462107,2147088594,2146958829,2147648722,2147116681,3044,-1,8,11438
1349883060,5806,397.8599853515625000,17.8546009063720700,36.5276985168457000,234.8874053955078000,159.9869995117187500,17.8552303314209000,30.8027992248535160,50,101,79,61,50,13025,2146956205,2147518966,2147266596,2147460370,2147085220,2146958317,2147654838,2147116480,2260,-2,8,36199
1349883170,5806,386.7600097656250000,17.9167003631591800,36.5367012023925800,235.2216033935547000,158.0646972656250000,17.9132709503173830,30.7608203887939450,50,103,80,62,49,13025,2146960493,2147516297,2147265654,2147464301,2147085494,2146957869,2147650496,2147120868,1517,-1,8,12518
1349883283,5808,375.4400024414062500,17.9650001525878900,36.5443992614746100,235.0316009521484400,156.4947052001953000,17.9606704711914060,30.7491893768310550,50,100,78,61,49,13024,2146957138,2147518939,2147267556,2147460982,2147089490,2146956105,2147647771,2147119789,398,-1,8,63219
1349883393,5805,364.3200073242187500,18.0217990875244140,36.5503005981445300,234.2532043457031200,154.5061035156250000,18.0207290649414060,30.7600498199462900,50,102,80,63,50,13022,2146954880,2147515785,2147263926,2147460681,2147085778,2146958601,2147650706,2147125641,3208,-1,8,40287
1349883503,5807,353.2399902343750000,18.0736999511718750,36.5587005615234400,234.3471069335937500,152.8354949951172000,18.0711898803710940,30.7329998016357420,50,102,81,62,49,13023,2146956489,2147516809,2147265124,2147462683,2147084809,2146959945,2147651264,2147122514,1894,-1,8,4343
1349883613,5805,342.3399963378906000,18.1187992095947270,36.5620994567871100,233.8059997558593800,151.2501983642578000,18.1190700531005860,30.7382297515869140,50,102,79,62,50,13024,2146954806,2147514934,2147264466,2147459126,2147086646,2146958537,2147650395,2147124873,1419,-2,8,24719
1349883742,5806,331.1499938964844000,18.1399002075195300,36.5619010925293000,232.2884979248047000,150.6369018554687500,18.1375999450683600,30.8036003112792970,50,100,79,62,50,13025,2146953234,2147515712,2147265289,2147460388,2147086765,2146957549,2147648713,2147124443,686,-1,8,62478
1349883863,5802,320.6099853515625000,18.1940002441406250,36.5713005065918000,232.3486938476562500,148.7073059082031200,18.1958904266357420,30.7750301361084000,50,104,79,61,49,13023,2146953490,2147516480,2147265673,2147462070,2147088210,2146958720,2147652662,2147122185,3286,-1,9,8117
1349883997,5810,309.0799865722656000,18.2513999938964840,36.5764007568359400,231.9252014160156200,147.0276947021484400,18.2466392517089840,30.7730293273925780,50,103,79,62,50,13023,2146953197,2147513344,2147263104,2147459776,2147084644,2146958390,2147651474,2147126125,2723,-1,8,55457
1349884118,5804,298.8599853515625000,18.3187007904052730,36.5792999267578100,230.1168060302734400,144.7595062255859400,18.3151798248291000,30.8313694000244140,51,101,79,62,50,13021,2146954331,2147514532,2147264731,2147459657,2147087981,2146955657,2147652059,2147124598,2508,-1,9,43882
1349884253,5805,287.9200134277344000,18.3943004608154300,36.5840988159179700,228.0811004638672000,142.2877960205078000,18.3898906707763670,30.8992195129394530,50,101,78,62,49,13022,2146953170,2147517833,2147267099,2147455195,2147085120,2146962925,2147647872,2147126637,2346,-1,9,774
1349884396,5802,276.5400085449219000,18.4776000976562500,36.5909996032714840,226.8085021972656200,139.6235961914062500,18.4704208374023440,30.9270896911621100,50,101,79,63,49,13020,2146956726,2147517641,2147264521,2147455881,2147087643,2146959149,2147647277,2147125357,2233,-2,8,18564
1349884550,5801,263.7200012207031000,18.5480003356933600,36.5959014892578100,228.6956024169922000,136.9064025878906200,18.5525798797607420,30.7968292236328120,50,102,79,61,49,13014,2146957549,2147515657,2147266733,2147455817,2147084736,2146964946,2147649645,2147126336,1088,-1,8,52061
1349884658,5806,252.8699951171875000,18.6403007507324220,36.6082992553710940,227.6535034179687500,134.1157989501953000,18.6369705200195300,30.8114204406738280,51,101,78,63,50,13019,2146955739,2147514102,2147264896,2147455616,2147086418,2146962934,2147650907,2147126619,750,-1,8,40524
1349884768,5804,241.6699981689453000,18.7350997924804700,36.6114997863769500,227.3845977783203000,130.9465026855468800,18.7328395843505860,30.7824592590332030,52,103,80,62,49,13022,2146952310,2147515355,2147265590,2147458450,2147084516,2146965028,2147650742,2147123209,3070,-1,9,32479
1349884880,5803,230.7799987792968800,18.8885002136230470,36.5988006591796900,230.2884063720703000,125.6934967041015600,18.8917903900146500,30.5692005157470700,50,102,79,62,50,13023,2146954989,2147515867,2147264658,2147453046,2147084251,2146960045,2147651483,2147125001,2030,-1,8,28809
1349884990,5806,220.4199981689453000,19.0321006774902340,36.5954017639160160,233.7657928466797000,121.1203002929687500,19.0302391052246100,30.3402900695800780,50,100,78,62,50,13023,2146954048,2147515072,2147267117,2147457526,2147086089,2146965760,2147655021,2147126902,2401,-1,9,63385
1349885111,5805,209.2700042724609400,19.1308994293212900,36.5839004516601560,239.0543060302734400,118.0749969482421900,19.1224594116210940,30.0494003295898440,52,101,80,63,48,13020,2146958180,2147517147,2147261668,2147458788,2147085750,2146971254,2147657353,2147126875,2035,-2,8,16148
1349885234,5805,198.0599975585937500,19.2033996582031250,36.5766983032226560,245.0449981689453000,115.5458984375000000,19.1990604400634770,29.7404499053955080,50,102,79,62,50,13017,2146955931,2147516489,2147262747,2147455844,2147083382,2146969124,2147663396,2147128941,1524,-1,8,7897
1349885289,5806,193.1600036621093800,19.2474994659423830,36.5777015686035160,246.7964935302734400,114.1518020629882800,19.2413005828857420,29.6433906555175780,51,102,80,61,50,13022,2146952758,2147515803,2147263606,2147457618,2147079414,2146975259,2147668470,2147126336,924,-1,9,55870
1349885344,5806,188.1399993896484400,19.2765998840332030,36.5778007507324200,247.5332031250000000,113.1594009399414000,19.2713699340820300,29.5973892211914060,51,102,81,62,50,13021,2146955291,2147513865,2147263570,2147453138,2147085266,2146983661,2147674404,2147129563,476,-2,8,59449
1349885399,5807,182.9600067138672000,19.2910995483398440,36.5752983093261700,248.5509948730468800,112.6337966918945300,19.2872905731201170,29.5449905395507800,51,103,81,62,49,13022,2146954230,2147515885,2147261659,2147454811,2147085869,2146983616,2147679808,2147126592,3582,-1,8,6651
1349885454,5805,177.7299957275390600,19.3278999328613280,36.5802001953125000,248.4627075195312500,111.3610992431640600,19.3258590698242200,29.5325603485107420,51,103,80,61,50,13020,2146954916,2147514596,2147267108,2147453760,2147078418,2146990500,2147695067,2147128841,3065,-1,9,48693
1349885529,5804,170.8899993896484400,19.3670997619628900,36.5788993835449200,248.1887054443359400,109.9300994873046900,19.3692398071289060,29.5262508392334000,53,104,79,62,50,13016,2146956297,2147517732,2147265929,2147455808,2147088713,2147004580,2147704393,2147131556,3099,-2,9,27771
1349885584,5809,166.2500000000000000,19.3974990844726560,36.5778007507324200,248.3325042724609400,109.0260009765625000,19.3966407775878900,29.5081291198730470,54,107,80,62,49,13011,2146957019,2147515538,2147264374,2147455689,2147082724,2147010093,2147714349,2147127817,3222,-1,9,3295
1349885639,5804,161.7100067138672000,19.4326000213623050,36.5805015563964840,248.4944000244140600,107.8926010131836000,19.4309997558593750,29.4862003326416000,56,108,80,63,50,13009,2146956854,2147518948,2147266806,2147452379,2147092845,2147021403,2147736320,2147132763,3224,-1,9,10978
1349885694,5806,157.3600006103515600,19.4648990631103500,36.5834007263183600,248.3287963867187500,106.8786010742187500,19.4617404937744140,29.4805793762207030,59,108,81,63,49,13007,2146954816,2147517229,2147263908,2147453814,2147086610,2147031250,2147749293,2147133211,3173,-2,9,51815
1349885749,5806,153.1900024414062500,19.5265998840332030,36.5886001586914060,247.9929046630859400,104.9628982543945300,19.5198307037353500,29.4708499908447270,63,111,80,62,48,13005,2146955163,2147519872,2147268141,2147454006,2147098112,2147043593,2147770020,2147135149,2793,-2,9,6018
1349885804,5805,149.2400054931640600,19.5848007202148440,36.5950012207031250,247.1199035644531200,103.0831985473632800,19.5768394470214840,29.4856300354003900,67,112,81,63,50,12997,2146955072,2147519314,2147268470,2147451931,2147094052,2147060032,2147799716,2147136237,2583,-2,9,24643
1349885882,5802,144.2299957275390600,19.6368007659912100,36.6013984680175800,246.5234985351562500,101.2738037109375000,19.6317291259765620,29.4889202117919920,70,114,80,61,50,12993,2146957842,2147517485,2147272228,2147452836,2147095853,2147095606,2147847862,2147138541,2244,-1,9,20256
1349885948,5809,140.6799926757812500,19.6826000213623050,36.6038017272949200,246.3334960937500000,99.7178268432617200,19.6789398193359380,29.4773292541503900,74,115,81,63,48,12993,2146953298,2147520448,2147268032,2147449316,2147108973,2147118006,2147889673,2147141586,2724,-2,9,44772
1349886036,5802,136.3600006103515600,19.8113002777099600,36.6124992370605500,245.9282989501953000,95.7542266845703100,19.7992305755615230,29.4444198608398440,85,116,80,63,49,12988,2146956781,2147523812,2147275812,2147450550,2147123017,2147172214,2147966774,2147146194,2468,-1,9,11762
1349886113,5802,132.7299957275390600,19.8377990722656250,36.6141014099121100,246.5437927246093800,94.7428283691406200,19.8299293518066400,29.4039497375488280,88,116,80,61,50,12986,2146956973,2147523830,2147276964,2147449261,2147136512,2147225371,2148056768,2147153069,2519,-2,9,14120
1349886203,5808,128.5599975585937500,19.9314994812011720,36.6246986389160160,246.2165069580078000,91.4329376220703100,19.9304409027099600,29.3759098052978500,90,118,80,62,49,12978,2146952493,2147526107,2147284516,2147448594,2147147145,2147296603,2148161188,2147160932,2656,-1,9,54560
1349886291,5803,124.7099990844726600,19.9710006713867200,36.6251983642578100,246.7077941894531200,89.8983230590820300,19.9770507812500000,29.3342609405517580,93,118,81,63,50,12976,2146957723,2147530962,2147286016,2147450011,2147174253,2147340032,2148223954,2147166326,3542,-1,9,57326
1349886390,5805,120.7200012207031200,20.1100997924804700,36.6347007751464840,246.7418060302734400,85.8194503784179700,20.1009807586669920,29.2805995941162100,100,120,81,62,50,12971,2146957568,2147527414,2147288073,2147451273,2147188114,2147371520,2148255707,2147170240,3248,-2,9,47482
1349886492,5806,116.6800003051757800,20.2054004669189450,36.6407012939453100,248.4338073730468800,82.7608337402343800,20.1939506530761720,29.1662101745605470,103,117,82,63,49,12967,2146959323,2147531117,2147292086,2147450761,2147220132,2147437549,2148332278,2147178240,2431,-2,9,45355
1349886580,5803,112.8799972534179700,20.2777004241943360,36.6441993713378900,249.0164947509765600,80.3781661987304700,20.2663993835449220,29.1101398468017580,108,120,81,62,50,12964,2146959981,2147534747,2147297252,2147451730,2147254400,2147541677,2148465490,2147188681,2521,-2,9,55745
1349886657,5805,109.5400009155273400,20.3600006103515620,36.6467018127441400,248.2630004882812500,77.3448333740234400,20.3586597442626950,29.1046295166015620,111,118,82,62,49,12963,2146960704,2147537243,2147299364,2147451693,2147296265,2147634889,2148594020,2147199241,2919,-2,9,32227
1349886756,5804,105.6299972534179700,20.5158996582031250,36.6577987670898440,247.9779052734375000,72.5483169555664000,20.5046195983886720,29.0561790466308600,115,118,80,63,49,12959,2146965165,2147546816,2147310400,2147448804,2147373065,2147807350,2148800457,2147216685,2448,-2,9,48483
1349886857,5804,101.7699966430664000,20.6399993896484380,36.6570014953613300,249.1165008544922000,68.4908828735351600,20.6281604766845700,28.9542999267578120,125,117,81,63,50,12954,2146970514,2147551177,2147321764,2147448265,2147469970,2148011739,2149061476,2147243008,2296,-2,9,58854
1349886934,5805,98.8600006103515600,20.6590995788574220,36.6594009399414060,251.3995056152343800,67.7342987060546900,20.6512107849121100,28.8451499938964840,122,119,80,62,50,12948,2146972498,2147554240,2147330953,2147451282,2147541979,2148154825,2149225965,2147259382,2176,-1,9,22503
1349886989,5807,96.9000015258789000,20.7369995117187500,36.6649017333984400,252.0774993896484400,65.4764328002929700,20.7199897766113280,28.7870807647705080,120,117,80,63,50,12949,2146974692,2147559771,2147331867,2147451044,2147580937,2148223643,2149306998,2147265554,2191,-2,9,24338
1349887044,5805,95.2399978637695300,20.7770004272460940,36.6715011596679700,251.1721038818359400,64.0099716186523400,20.7646808624267580,28.8078594207763670,128,119,80,62,49,12946,2146973906,2147561462,2147337170,2147451858,2147605376,2148257353,2149327753,2147268516,2147,-1,9,36751
1349887131,5805,92.9499969482421900,20.9027004241943360,36.6772003173828100,248.9013061523437500,59.9452590942382800,20.8885803222656250,28.8555507659912100,127,118,80,63,48,12941,2146973723,2147559597,2147331593,2147448045,2147617142,2148224338,2149235638,2147266011,1601,-1,9,38624
1349887186,5806,91.2200012207031200,20.9330997467041000,36.6717987060546900,250.8506011962890600,58.8450508117675800,20.9221305847167970,28.7565498352050780,117,119,80,63,50,12938,2146978514,2147563785,2147336402,2147445595,2147675090,2148290486,2149296100,2147270802,1620,-2,9,60282
1349887263,5803,89.0199966430664000,21.0452003479003900,36.6743011474609400,256.4083862304687500,55.3352203369140600,21.0291996002197270,28.4740200042724600,111,117,81,63,48,12946,2146982582,2147571035,2147344457,2147447122,2147792676,2148502573,2149515465,2147293028,2126,-2,9,15481
1349887340,5805,87.1900024414062500,21.1760997772216800,36.6701011657714840,256.4910888671875000,51.0233612060546900,21.1608009338378900,28.4163703918457030,116,118,81,62,50,12945,2146987346,2147580379,2147352786,2147448301,2147913974,2148713819,2149740818,2147319762,2218,-1,9,21195
1349887441,5807,85.2200012207031200,21.4652996063232420,36.6884994506835940,259.6152954101562500,41.6824913024902340,21.4461898803710940,28.1690406799316400,97,116,81,63,49,12944,2146996141,2147592722,2147370121,2147447561,2148105737,2149015314,2150050651,2147350857,3193,-2,9,20679
1349887518,5806,82.9199981689453100,21.6735992431640620,36.6946983337402340,261.4830017089844000,34.6575202941894500,21.6610908508300780,28.0044898986816400,98,121,81,63,50,12933,2147009289,2147607725,2147390793,2147449014,2148342564,2149388745,2150399360,2147391972,2593,-2,9,2763
1349887573,5806,81.0000000000000000,21.7418994903564450,36.6855010986328100,262.9164123535156000,32.4219818115234400,21.7295207977294920,27.9181804656982420,96,120,81,62,48,12931,2147017682,2147619565,2147403785,2147448320,2148579163,2149745033,2150734482,2147427282,2403,-1,9,3476
1349887628,5808,78.7300033569336000,21.8110008239746100,36.6918983459472660,263.6317138671875000,30.3693695068359380,21.7923793792724600,27.8636207580566400,94,119,81,63,49,12935,2147030966,2147639286,2147425014,2147449801,2148871058,2150194450,2151162944,2147474752,2696,-1,9,24128
1349887683,5805,76.2900009155273400,21.8465995788574220,36.6875000000000000,263.4411010742187500,28.9708595275878900,21.8352203369140620,27.8541698455810550,93,119,80,63,50,12926,2147040996,2147654674,2147446299,2147453028,2149205769,2150676306,2151603346,2147525878,2988,-1,9,55357
1349887761,5808,72.7200012207031200,22.0058994293212900,36.6749992370605500,266.5311889648437500,22.7544994354248050,22.0257606506347660,27.6527309417724600,91,120,82,62,48,12920,2147069156,2147689344,2147476004,2147454418,2149776146,2151403913,2152190692,2147597604,2654,-2,9,58422
1349887816,5805,70.1999969482421900,22.2879009246826170,36.6764984130859400,263.8359985351562500,14.1212501525878900,22.2907104492187500,27.6551704406738280,91,122,82,63,48,12925,2147088000,2147707428,2147491602,2147455643,2150180690,2151861833,2152499657,2147635081,2862,-2,9,52278
1349887871,5805,68.2600021362304700,22.4512996673584000,36.6692008972168000,262.3705139160156000,9.7803802490234380,22.4240798950195300,27.6613197326660160,90,122,82,64,49,12915,2147099931,2147717513,2147505051,2147458980,2150497398,2152209792,2152749632,2147665837,2812,-2,9,41358
1349887926,5809,66.4800033569336000,22.6102008819580080,36.6701011657714840,260.8131103515625000,4.6751527786254880,22.5810699462890620,27.6620903015136720,91,121,82,64,50,12915,2147116608,2147734107,2147516562,2147454930,2150794084,2152554578,2152991588,2147699053,2695,-1,9,10902
1349887981,5802,64.6299972534179700,22.7320995330810550,36.6594009399414060,260.0508117675781000,0.9627252817153931,22.6953201293945300,27.6479091644287100,90,122,82,65,49,12915,2147128896,2147747501,2147525952,2147456310,2151110692,2152872704,2153236416,2147732626,2459,-2,9,63230
1349888036,5803,63.0800018310546900,22.7796001434326170,36.6477012634277340,259.9682922363281000,0.0021636490710080,22.7248992919921880,27.6393108367919920,90,121,82,64,50,12914,2147132233,2147753782,2147528640,2147454208,2151188288,2152954112,2153264941,2147741504,2285,-1,9,60901
1349888125,5806,61.1899986267089840,23.0568008422851560,36.6058006286621100,260.0309143066406000,-9.8332910537719730,23.0280208587646500,27.5161991119384770,85,125,83,63,49,12913,2147142582,2147756141,2147529005,2147455131,2151335433,2152991378,2153206390,2147746084,2580,-2,9,11540
1349888257,5805,59.8499984741210940,23.1776008605957030,36.5929985046386700,263.1738891601562500,-13.6960897445678710,23.1472301483154300,27.3415908813476560,87,123,83,63,48,12916,2147140571,2147750738,2147516233,2147452196,2151323620,2152837120,2152942829,2147713792,2164,-2,9,58732
1349888468,5806,56.9000015258789060,23.5172996520996100,36.5563011169433600,262.6588134765625000,-24.5517101287841800,23.4827308654785160,27.2300701141357420,81,131,81,63,49,12906,2147179602,2147777709,2147534409,2147455442,2152012882,2153443693,2153252114,2147768740,2273,-2,9,33168
1349888534,5806,55.3400001525878900,23.6720008850097660,36.5490989685058600,263.1348876953125000,-29.8156700134277340,23.6456794738769530,27.1471595764160160,84,124,83,63,48,12902,2147192329,2147793545,2147541266,2147455917,2152383094,2153813878,2153502784,2147798162,2061,-2,9,40714
1349888734,5807,53.8899993896484400,23.8428993225097660,36.5497016906738300,264.1943969726562500,-35.8692588806152340,23.8332996368408200,27.0313205718994140,79,125,83,63,49,12894,2147202395,2147797869,2147539693,2147452946,2152581449,2153902848,2153466998,2147797120,615,-2,9,61723
1349888803,5808,51.6699981689453100,24.0340995788574220,36.5517997741699200,264.5683898925781000,-41.7685508728027340,24.0163707733154300,26.9450492858886720,82,125,81,64,47,12896,2147261613,2147858962,2147592237,2147457709,2153928155,2155376950,2154589293,2147948754,3497,-2,10,26158
1349888860,5808,49.4399986267089840,24.1033992767334000,36.5444984436035160,265.8182983398437500,-44.1855392456054700,24.0914497375488280,26.8663291931152340,78,124,83,63,48,12895,2147346532,2147942034,2147668900,2147463789,2155893659,2157586112,2156331593,2148186459,97,-2,9,63001
1349888917,5806,47.5999984741210940,24.2947006225585940,36.5330009460449200,265.3489074707031000,-50.1119689941406250,24.2756996154785160,26.8134803771972660,76,127,84,63,48,12901,2147430628,2148024502,2147745828,2147468269,2157810468,2159732964,2158016429,2148426486,294,-2,9,30883
1349889081,5808,45.9399986267089840,24.8493995666503900,36.5004005432128900,264.2950134277344000,-66.5910034179687500,24.7893199920654300,26.6568603515625000,77,122,84,64,48,12896,2147515264,2148109504,2147815076,2147482514,2159766171,2161767890,2159546066,2148648475,76,-1,9,24326
1349889414,5807,43.9300003051757800,25.2884998321533200,36.4720001220703100,262.4844055175781000,-78.0121231079101600,25.1464691162109380,26.5915603637695300,78,128,82,64,49,12889,2147364004,2147930102,2147639259,2147462363,2156195931,2157220553,2155616466,2148142253,513,-1,9,60786
1349889723,5809,41.9000015258789060,25.6895008087158200,36.4656982421875000,257.7771911621094000,-94.4954833984375000,25.6636905670166000,26.5824394226074220,77,125,82,63,48,12888,2147580406,2148129417,2147799597,2147472256,2161190454,2162381860,2159349988,2148651108,2521,-1,9,39496
1349889971,5809,39.7999992370605500,26.3232002258300780,36.4630012512207000,250.8802947998047000,-115.0326995849609400,26.3111991882324220,26.6180305480957030,77,124,82,63,47,12887,2147751232,2148293010,2147943954,2147492059,2164707785,2165898550,2161867629,2149037083,1947,-1,9,20011
1349890028,5805,37.8400001525878900,26.5223999023437500,36.4530982971191400,248.9447021484375000,-120.6903991699218800,26.4902095794677730,26.6306495666503900,74,124,82,65,48,12894,2147946340,2148470025,2148100425,2147516589,2169253037,2170510134,2165187410,2149572534,1176,-2,9,43221
1349890300,5807,35.6100006103515600,26.7045993804931640,36.4385986328125000,245.6775970458984400,-127.1141967773437500,26.6937904357910160,26.6906700134277340,74,121,82,63,48,12896,2148178642,2148676845,2148243757,2147525467,2174681846,2175819977,2168878281,2150123410,3192,-1,10,39758
1349890549,5806,34.0099983215332000,26.9573001861572270,36.3189010620117200,239.8771972656250000,-135.5850067138672000,26.9628200531005860,26.8373908996582030,73,121,81,64,48,12906,2148636214,2149116333,2148626477,2147580736,2185095689,2186976027,2177387026,2151538980,2814,-2,9,10787